Погода в Собрале

Бразилия     3°41′15″S   40°20′46″W
темп.,
°C
ветер,
м/с
пор.,
м/с
влажн.,
%
обл.,
%
осадки,
мм/ч
давл.,
гПа
погр.,
м
27 февраля, сб
сб2700:00+23с1397100 0.1 1011150
03:00+23ссв009788 0.1 101025
06:00+22ююз1198100 0.0 101028
09:00+27вюв247787 0.4 1012826
12:00+32в145162 0.1 10101704
15:00+28ссв477666 2.1 1007475
18:00+25с278889 3.1 1008218
21:00+24с269294 3.1 1010225
28 февраля, вс
вс2800:00+23с129698 0.1 101083
03:00+22с019866 0.1 100823
06:00+22ю119867 0.2 101026
09:00+27ююв127871 0.5 1011590
12:00+32вюв135667 0.8 10091447
15:00+30с346745 3.1 1006759
18:00+25с258737 2.9 1007132
21:00+23с279468 4.1 1008262
1 марта, пн
пн100:00+22с129766 0.0 100963
03:00+22юв019857 0.1 100723
06:00+22ю119818 0.0 100832
09:00+27вюв257311 0.0 1010991
12:00+31в255261 0.0 10081756
15:00+28ссз246980 0.4 1005515
18:00+25ссв268284 0.7 1006159
21:00+23с269071 0.7 1009198
2 марта, вт
вт200:00+22ссв1295100 0.0 100963
03:00+22зюз1197100 0.0 100826
06:00+22ю1298100 0.1 100943
09:00+27вюв3672100 0.2 10111023
12:00+32в365095 0.1 10101944
15:00+30ссв256298 0.4 1007780
18:00+27св4106735 0.3 1009416
21:00+24ссв368737 0.6 1011219
3 марта, ср
ср300:00+23ссв259497 0.0 1012208
03:00+22с019878 0.4 101024
06:00+22ю119987 0.2 101231
09:00+28вюв257181 0.3 10131005
12:00+32в255064 0.2 10121797
15:00+31сз126082 0.4 100987
18:00+28св386591 0.3 1010282
21:00+23ссв268854 0.7 1012194